Zurück zum Katalog

STARLINK-32610

AktivKommunikationVLEO
NORAD 61971·PAYLOAD·🇺🇸 United States

Gestartet Nov 14, 2024 von Cape Canaveral Space Force Station

Loading…

Nächste Überflüge (nächste 24 Stunden)

TLE

AktuellSource: CelesTrak SupGP

Epoche: Sep 14, 2026, 21:12 UTC

1 61971C 24210N   26257.88381944  .00007201  00000+0  26053-3 0  2575
2 61971  43.0002 191.5799 0001601 262.9559  42.1387 15.27612620    10

Verfolge STARLINK-32610 in Echtzeit mit AllMySat

Download on the App Store